TimeMDT,TemperatureF,Dew PointF,Humidity,Sea Level PressureIn,VisibilityMPH,Wind Direction,Wind SpeedMPH,Gust SpeedMPH,PrecipitationIn,Events,Conditions,WindDirDegrees,DateUTC
12:15 AM,72.0,65.3,79,30.07,7.0,WSW,19.6,33.4,0.01,Rain-Thunderstorm,Thunderstorms and Rain,240,2013-07-14 06:15:00
12:35 AM,70.9,64.9,81,30.05,7.0,Calm,Calm,-,0.08,Rain-Thunderstorm,Heavy Thunderstorms and Rain,0,2013-07-14 06:35:00
12:55 AM,69.6,65.8,88,30.00,7.0,NW,17.3,-,0.30,Rain-Thunderstorm,Thunderstorms and Rain,320,2013-07-14 06:55:00
1:15 AM,69.8,66.4,89,30.00,10.0,NW,11.5,-,N/A,Rain-Thunderstorm,Light Thunderstorms and Rain,310,2013-07-14 07:15:00
1:35 AM,70.3,66.7,88,30.01,10.0,NNW,13.8,-,N/A,Rain-Thunderstorm,Light Thunderstorms and Rain,340,2013-07-14 07:35:00
1:55 AM,70.3,66.7,88,30.04,10.0,SSW,12.7,-,0.01,Rain-Thunderstorm,Light Thunderstorms and Rain,210,2013-07-14 07:55:00
2:15 AM,70.3,65.8,86,30.00,10.0,West,15.0,-,N/A,Rain,Light Rain,270,2013-07-14 08:15:00
2:35 AM,70.9,65.3,82,30.01,10.0,NNE,4.6,-,0.01,Thunderstorm,Unknown,30,2013-07-14 08:35:00
2:55 AM,71.6,65.1,80,30.00,10.0,NNW,15.0,-,0.01,Rain,Light Rain,340,2013-07-14 08:55:00
3:15 AM,72.1,65.1,78,30.00,10.0,West,5.8,-,N/A,,Clear,280,2013-07-14 09:15:00
3:35 AM,72.0,64.2,77,29.97,10.0,WNW,16.1,-,N/A,,Clear,300,2013-07-14 09:35:00
3:55 AM,71.4,64.2,78,29.98,10.0,WSW,10.4,-,N/A,Rain,Light Rain,240,2013-07-14 09:55:00
4:15 AM,70.2,65.5,85,29.98,10.0,WNW,5.8,-,N/A,Rain,Light Rain,290,2013-07-14 10:15:00
4:35 AM,70.0,66.2,88,29.98,10.0,West,9.2,-,N/A,Rain,Light Rain,270,2013-07-14 10:35:00
4:55 AM,70.2,66.2,87,30.00,10.0,Calm,Calm,-,N/A,,Clear,0,2013-07-14 10:55:00
5:15 AM,70.3,65.8,86,30.00,10.0,Calm,Calm,-,N/A,,Clear,0,2013-07-14 11:15:00
5:35 AM,70.0,65.8,87,30.00,10.0,WNW,4.6,-,N/A,,Clear,290,2013-07-14 11:35:00
5:55 AM,70.3,65.7,85,30.01,10.0,WNW,6.9,-,N/A,,Clear,290,2013-07-14 11:55:00
6:15 AM,70.7,65.5,83,30.00,10.0,NW,13.8,-,N/A,,Clear,320,2013-07-14 12:15:00
6:35 AM,71.6,64.8,79,30.01,10.0,NW,10.4,-,N/A,,Clear,320,2013-07-14 12:35:00
6:55 AM,72.0,65.1,79,30.02,10.0,NW,9.2,-,N/A,,Scattered Clouds,320,2013-07-14 12:55:00
7:15 AM,74.5,65.5,73,30.04,10.0,NW,4.6,-,N/A,,Scattered Clouds,310,2013-07-14 13:15:00
7:35 AM,76.8,64.8,66,30.06,10.0,North,8.1,-,N/A,,Clear,350,2013-07-14 13:35:00
7:55 AM,75.6,65.8,72,30.07,10.0,North,8.1,-,N/A,,Scattered Clouds,10,2013-07-14 13:55:00
8:15 AM,76.1,65.7,70,30.07,10.0,NNE,8.1,-,N/A,,Mostly Cloudy,30,2013-07-14 14:15:00
8:35 AM,77.0,65.8,68,30.07,10.0,North,13.8,-,N/A,,Overcast,10,2013-07-14 14:35:00
8:55 AM,77.0,67.1,71,30.08,10.0,NNE,9.2,-,N/A,,Overcast,20,2013-07-14 14:55:00
9:15 AM,77.9,68.7,73,30.08,10.0,NE,9.2,-,N/A,,Overcast,50,2013-07-14 15:15:00
9:35 AM,79.7,70.0,72,30.08,10.0,NE,11.5,-,N/A,,Mostly Cloudy,40,2013-07-14 15:35:00
9:55 AM,80.4,70.2,71,30.07,10.0,NNE,12.7,17.3,N/A,,Scattered Clouds,30,2013-07-14 15:55:00
10:15 AM,80.6,70.7,72,30.07,10.0,NNE,12.7,17.3,N/A,,Mostly Cloudy,30,2013-07-14 16:15:00
10:35 AM,80.2,70.5,72,30.08,10.0,NE,15.0,-,N/A,,Mostly Cloudy,40,2013-07-14 16:35:00
10:55 AM,82.2,70.7,68,30.08,10.0,NNE,13.8,17.3,N/A,,Mostly Cloudy,30,2013-07-14 16:55:00
11:15 AM,81.0,70.5,70,30.09,10.0,NNE,12.7,18.4,N/A,,Mostly Cloudy,30,2013-07-14 17:15:00
11:35 AM,81.0,70.7,71,30.09,10.0,North,13.8,-,N/A,,Mostly Cloudy,10,2013-07-14 17:35:00
11:55 AM,82.2,70.9,68,30.08,10.0,North,16.1,21.9,N/A,,Mostly Cloudy,10,2013-07-14 17:55:00
12:15 PM,82.9,70.5,66,30.08,10.0,North,16.1,-,N/A,,Scattered Clouds,10,2013-07-14 18:15:00
12:35 PM,82.8,70.3,66,30.09,10.0,North,13.8,20.7,N/A,,Scattered Clouds,360,2013-07-14 18:35:00
12:55 PM,82.4,70.3,67,30.09,10.0,North,15.0,-,N/A,,Mostly Cloudy,10,2013-07-14 18:55:00
1:15 PM,80.8,69.1,67,30.10,10.0,NE,15.0,-,N/A,,Mostly Cloudy,40,2013-07-14 19:15:00
1:35 PM,80.1,68.9,69,30.10,10.0,NE,17.3,-,N/A,,Overcast,40,2013-07-14 19:35:00
1:55 PM,78.8,68.7,71,30.11,10.0,NE,16.1,19.6,N/A,,Overcast,40,2013-07-14 19:55:00
2:15 PM,78.1,68.9,73,30.11,10.0,NNE,17.3,21.9,N/A,,Overcast,30,2013-07-14 20:15:00
2:35 PM,77.9,69.1,74,30.10,10.0,NNE,17.3,23.0,N/A,Thunderstorm,Overcast,30,2013-07-14 20:35:00
2:55 PM,77.5,69.3,76,30.10,10.0,NNE,19.6,24.2,N/A,,Overcast,20,2013-07-14 20:55:00
3:15 PM,76.6,69.1,77,30.10,10.0,North,16.1,26.5,N/A,,Overcast,10,2013-07-14 21:15:00
3:35 PM,77.0,69.1,76,30.09,10.0,North,23.0,26.5,N/A,,Overcast,10,2013-07-14 21:35:00
3:55 PM,75.6,68.5,79,30.10,10.0,North,19.6,24.2,N/A,,Overcast,360,2013-07-14 21:55:00
4:15 PM,75.6,68.2,78,30.10,10.0,North,17.3,26.5,N/A,,Overcast,10,2013-07-14 22:15:00
4:35 PM,75.2,68.2,79,30.12,10.0,NNE,17.3,23.0,N/A,,Overcast,30,2013-07-14 22:35:00
4:55 PM,75.6,68.2,78,30.11,10.0,NNE,17.3,21.9,N/A,,Mostly Cloudy,30,2013-07-14 22:55:00
5:15 PM,75.2,68.2,79,30.11,10.0,NNE,16.1,20.7,N/A,,Mostly Cloudy,30,2013-07-14 23:15:00
5:35 PM,74.8,68.4,80,30.12,10.0,NE,11.5,-,N/A,,Overcast,50,2013-07-14 23:35:00
5:55 PM,74.1,67.8,81,30.13,10.0,SSE,9.2,18.4,N/A,Rain,Light Rain,160,2013-07-14 23:55:00
6:15 PM,71.8,68.2,88,30.14,10.0,SE,3.5,-,N/A,Rain-Thunderstorm,Light Thunderstorms and Rain,130,2013-07-15 00:15:00
6:35 PM,71.6,68.4,89,30.13,10.0,East,4.6,-,N/A,Rain-Thunderstorm,Light Thunderstorms and Rain,100,2013-07-15 00:35:00
6:55 PM,70.7,67.3,89,30.14,10.0,ESE,4.6,-,N/A,Thunderstorm,Unknown,110,2013-07-15 00:55:00
7:15 PM,70.0,66.9,90,30.14,10.0,East,5.8,-,0.02,Rain-Thunderstorm,Light Thunderstorms and Rain,80,2013-07-15 01:15:00
7:35 PM,69.8,67.1,91,30.14,10.0,North,3.5,-,0.02,Rain-Thunderstorm,Light Thunderstorms and Rain,350,2013-07-15 01:35:00
7:55 PM,69.3,66.4,91,30.13,7.0,North,5.8,-,0.04,Rain-Thunderstorm,Light Thunderstorms and Rain,360,2013-07-15 01:55:00
8:15 PM,69.8,67.1,91,30.14,10.0,NNW,4.6,-,N/A,Thunderstorm,Mostly Cloudy,340,2013-07-15 02:15:00
8:35 PM,70.2,67.3,91,30.15,10.0,NE,5.8,-,N/A,,Overcast,40,2013-07-15 02:35:00
8:55 PM,70.3,67.8,92,30.15,10.0,ENE,4.6,-,N/A,,Overcast,70,2013-07-15 02:55:00
9:15 PM,71.1,68.4,91,30.16,7.0,Calm,Calm,-,N/A,Thunderstorm,Overcast,0,2013-07-15 03:15:00
9:35 PM,71.1,68.2,91,30.16,10.0,East,4.6,-,N/A,Rain-Thunderstorm,Light Thunderstorms and Rain,80,2013-07-15 03:35:00
9:55 PM,71.1,68.0,90,30.18,10.0,East,6.9,-,N/A,Rain-Thunderstorm,Light Thunderstorms and Rain,80,2013-07-15 03:55:00
10:15 PM,71.1,67.6,89,30.18,10.0,ESE,8.1,-,N/A,Rain-Thunderstorm,Light Thunderstorms and Rain,110,2013-07-15 04:15:00
10:35 PM,70.9,66.9,87,30.18,10.0,ESE,5.8,-,N/A,,Overcast,110,2013-07-15 04:35:00
10:55 PM,70.2,66.2,87,30.19,10.0,East,5.8,-,N/A,,Overcast,100,2013-07-15 04:55:00
11:15 PM,69.8,66.2,88,30.19,10.0,ESE,4.6,-,N/A,,Overcast,110,2013-07-15 05:15:00
11:35 PM,69.8,66.2,88,30.18,10.0,ESE,5.8,-,N/A,,Overcast,110,2013-07-15 05:35:00
11:55 PM,69.4,65.7,88,30.19,10.0,ESE,5.8,-,N/A,,Overcast,120,2013-07-15 05:55:00